Regional Weather Roundup
Issued by NWS Upton, NY

Current Version | Previous Version | Graphics & Text | Print | Product List | Glossary Off
Versions: 1 2 3 4 5 6 7 8 9 10 11 12 13 14 15 16 17 18 19 20 21 22 23 24 25 26 27 28 29 30 31 32 33 34 35 36 37 38 39 40 41 42 43 44 45 46 47 48 49 50

000
ASUS41 KOKX 222205
RWROKX

Regional Weather Roundup
National Weather Service New York NY
600 PM EDT SUN APR 22 2018

Note: "FAIR" indicates few or no clouds below 12,000 feet with no
significant weather and/or obstructions to visibility.

NYZ071-072-176-178-NJZ106-104-222300-
New York City Metro Area

CITY           SKY/WX    TMP DP  RH WIND       PRES   REMARKS
Central Park   FAIR      58  21  24 VRB7G18   30.35S
Bronx Bot Gard   N/A     57  25  28 SE8       30.33
Bronx Lehman C   N/A     59  23  25 S14         N/A
LaGuardia Arpt FAIR      59  21  23 S15       30.32S
Queens College   N/A     55  25  30 S15G26      N/A
Kennedy Intl   FAIR      52  31  44 S21       30.35S
Breezy Point     N/A     48 N/A N/A S17G23      N/A
Brooklyn Coll    N/A     54  28  37 SE12        N/A
Staten Island    N/A     59  27  29 SE10        N/A
Newark/Liberty FAIR      61  33  35 SE12      30.31S
Teterboro      FAIR      62  22  21 W8        30.31R
$$

NYZ177-179-078>081-222300-
Long Island New York

CITY           SKY/WX    TMP DP  RH WIND       PRES   REMARKS
Jones Beach      N/A     50 N/A N/A S13         N/A
Wantagh          N/A     52  32  46 S13         N/A
Hempstead        N/A     54  28  37 S10       30.36
Matinecock Pt    N/A     59 N/A N/A S7G13       N/A
Farmingdale    FAIR      53  28  38 SW15      30.35S
MacArthur/ISP  FAIR      54  25  32 SW13      30.34S
Stony Brook      N/A     57  27  30 S8          N/A
Shirley        FAIR      55  26  32 SW10      30.35R
Mt Sinai Harb    N/A     59 N/A N/A SW9G15      N/A
Westhampton    FAIR      53  24  32 SW10      30.36S
East Hampton   FAIR      51  27  39 SW10      30.33S
Southold         N/A     55  30  38 SW13        N/A
Montauk          N/A     54  26  34 SW9G17    30.34S
$$

NYZ052-065-067-222300-
Hudson Valley

CITY           SKY/WX    TMP DP  RH WIND       PRES   REMARKS
White Plains   FAIR      60  21  22 S10       30.30F
Larchmont Harb   N/A     52 N/A N/A S17         N/A
Croton On Huds   N/A     63 N/A N/A SE2         N/A
Somers           N/A     63  16  16 N5          N/A
Brewster         N/A     61  14  16 NW12        N/A
Newburgh       SUNNY     64  19  17 VRB6      30.31F
Montgomery     FAIR      65  18  16 N8        30.29S
Otisville        N/A     63  19  19 N5          N/A
Warwick          N/A     63  21  20 N8          N/A
Suffern          N/A     63  14  15 NW7         N/A
Poughkeepsie   FAIR      63  16  16 NE7       30.29F
Albany         FAIR      63   7  11 NW12      30.31S
$$

NJZ001-105-106-008-010-013-015-019>022-104-222300-
New Jersey

CITY           SKY/WX    TMP DP  RH WIND       PRES   REMARKS
Newark/Liberty FAIR      61  33  35 SE12      30.31S
Teterboro      FAIR      62  22  21 W8        30.31R
Caldwell       FAIR      66  13  12 VRB6      30.31S
Somerville     FAIR      66  18  15 VRB3      30.29S
Linden         FAIR      64  24  22 S9        30.32R
Perth Amboy      N/A     59 N/A N/A SE16        N/A
Sussex         FAIR      65  17  15 NW8       30.31F
Andover          N/A     65  13  13 CALM      30.31S
Trenton        FAIR      64  23  21 SW5       30.32F
Millville      FAIR      57  29  34 VRB5      30.36R
Atlantic City  FAIR      55  28  35 S12       30.37S
Wrightstown    FAIR      65  19  17 CALM      30.31S
Toms River     FAIR      58  26  29 S13       30.36S
Belmar         FAIR      55  23  28 S14       30.36F
$$

PAZ047>061-062-071-222300-
Eastern Pennsylvania

CITY           SKY/WX    TMP DP  RH WIND       PRES   REMARKS
Philadelphia   FAIR      65  22  19 SW7       30.34S
Allentown      FAIR      66  14  13 NW5       30.32S
Scranton       FAIR      63  17  17 N13       30.32S
$$

CTZ002-004>006-009-010-012-RIZ004-006-007-MAZ004-011-015-222300-
Southern New England

 In CT

CITY           SKY/WX    TMP DP  RH WIND       PRES   REMARKS
Bradley Intl   FAIR      63  12  13 N12       30.30S
Hartford       FAIR      63  15  15 N10       30.30S
Danbury        FAIR      62  15  16 NW7       30.32S
Wtrbury/Oxford FAIR      59  18  20 N14       30.31F
Norwalk Harbor   N/A     55 N/A N/A S10         N/A
Bridgeport     FAIR      60  19  20 S12       30.31F
Meriden        FAIR      63  12  13 N10       30.31S
New Haven      FAIR      58  25  28 SW6       30.31F
Chester        FAIR      63   7  11 N8G15     30.30F
Groton         FAIR      54  32  43 SW13      30.30F
Willimantic    FAIR      62  14  15 N12       30.30S

 In RI

CITY           SKY/WX    TMP DP  RH WIND       PRES   REMARKS
Providence     FAIR      58  33  39 S9        30.30S
Block Island   FAIR      51  32  48 SW17      30.32F
Westerly       FAIR      56  31  38 SW9       30.32S

In MA

CITY           SKY/WX    TMP DP  RH WIND       PRES   REMARKS
Boston         FAIR      53  32  44 E12       30.30S
Worcester      FAIR      57  14  18 NW10      30.30R
Westfield      FAIR      61  11  14 N12       30.30S
Provincetown   FAIR      52  29  41 S10       30.33S
Nantucket      FAIR      50  30  46 SW5       30.35R
$$

ANZ330-335-338-340-345-350-353-355-222300-
Coastal Marine Observations


STATION/POSITION TIME  SKY/WX   TEMP    WIND        PRES    VSBY  WAVE
                                AIR SEA DIR/SP/G                  HT/PER
                 (UTC)          (F)     (DEG/KT/KT) (MB)    (MI)  (FT/S)
NY Harb Entrance 2150            48 45  190/ 14/ 16 1028.0          1/ 3
20 S Fire Island 2150            48 45  210/ 12/ 12 1028.2
23 SSW Montauk P 2150            47 44  220/ 14/ 16 1027.6          2/ 5
15 E Barnegat Li 2130               46                N/A           1/15
Hudson Canyon    2150            48 47  210/  4/  4 1028.6          1/ 9
Kings Point      2142            54 47  220/ 16/ 17 1028.0
Execution Rocks  NOT AVBL
Western LI Sound NOT AVBL
Central LI Sound 2130            50     210/  6/  8   N/A           1
Robbins Reef     2142            53     160/ 18/ 19 1027.5
$$


>>>>>>>>>>>>>>>>>>>>>>>>>>>> KEY <<<<<<<<<<<<<<<<<<<<<<<<<<<
>                                                          <
>     SKY/WX - Sky Condition/Present Weather               <
>     TMP    - Temperature in Fahrenheit                   <
>     DP     - Dew Point in Fahrenheit                     <
>     RH     - Relative Humidity in Percent                <
>     WIND   - Direction (from) and Speed in MPH           <
>     PRES   - Mean Sea Level Pressure (inches of Hg)      <
>     WCI    - Wind Chill Index                            <
>     VSB    - Visibility in Miles                         <
>     HX     - Heat Index                                  <
>     TC     - Temperature in Celsius                      <
>     VRB    - Varibale Wind Direction                     <
>                                                          <
>>>>>>>>>>>>>>>>>>>>>>>>>>>> KEY <<<<<<<<<<<<<<<<<<<<<<<<<<<



USA.gov is the U.S. government's official web portal to all federal, state and local government web resources and services.